Regional Weather Roundup
Issued by NWS

Home | Current Version | Previous Version | Text Only | Print | Product List | Glossary On
Versions: 1 2 3 4 5 6 7 8 9 10 11 12 13 14 15 16 17 18 19 20 21 22 23 24 25 26 27 28 29 30 31 32 33 34 35 36 37 38 39 40 41 42 43 44 45 46 47 48 49 50
000
ASUS43 KLSX 050607
RWRMO

WEATHER SUMMARY FOR MISSOURI
NATIONAL WEATHER SERVICE SPRINGFIELD MO
1200 AM CST MON DEC 05 2016

NOTE: "FAIR" INDICATES FEW OR NO CLOUDS BELOW 12,000 FEET WITH NO
       SIGNIFICANT WEATHER AND/OR OBSTRUCTIONS TO VISIBILITY.
       CURRENT SKY AND/OR WEATHER CONDITIONS ARE NOT AVAILABLE FOR
       CHILLICOTHE AND FARMINGTON.

MOZ001>031-035>038-043-044-053-054-050700-
...NORTHERN AND WESTERN MISSOURI...

CITY           SKY/WX    TMP DP  RH WIND       PRES   REMARKS
KANSAS CTY INT CLEAR     29  27  92 S8        29.98S WCI  21
6HR MIN TEMP:  29; 6HR MAX TEMP:  36;

KANSAS C DTWN  CLEAR     33  32  96 CALM      30.00R
6HR MIN TEMP:  32; 6HR MAX TEMP:  40;

LEE`S SUMMIT   CLEAR     35  33  92 SW8       30.00R WCI  29
6HR MIN TEMP:  34; 6HR MAX TEMP:  40;

ST JOSEPH      CLEAR     30  29  96 S5        29.97F WCI  25
6HR MIN TEMP:  30; 6HR MAX TEMP:  36;

CHILLICOTHE      N/A     27  25  92 CALM      30.00S
6HR MIN TEMP:  27; 6HR MAX TEMP:  38;

KIRKSVILLE     FOG       31  30  96 CALM      29.98F VSB 3/4
6HR MIN TEMP:  31; 6HR MAX TEMP:  36;


$$
MOZ066>068-077>081-088>096-101>105-050700-
...SOUTHWEST MISSOURI...

CITY           SKY/WX    TMP DP  RH WIND       PRES   REMARKS
SPRINGFIELD    CLOUDY    32  30  92 S3        30.02F FOG
6HR MIN TEMP:  28; 6HR MAX TEMP:  41;

JOPLIN         CLOUDY    33  33 100 S7        30.04S WCI  27
6HR MIN TEMP:  30; 6HR MAX TEMP:  40;

BRANSON        PTCLDY    34  34 100 CALM      30.04S FOG

$$
MOZ032>034-039>042-045>050-055>058-069>072-050700-
...CENTRAL MISSOURI...

CITY           SKY/WX    TMP DP  RH WIND       PRES   REMARKS
COLUMBIA       CLEAR     35  33  92 CALM      30.01F
6HR MIN TEMP:  32; 6HR MAX TEMP:  39;

JEFFERSON CITY FOG       28  27  96 SE3       30.03F VSB 1/4
6HR MIN TEMP:  27; 6HR MAX TEMP:  40;

ROLLA          CLOUDY    33  33 100 SW3       30.01F
6HR MIN TEMP:  29; 6HR MAX TEMP:  39;

SEDALIA        CLEAR     35  33  92 SW8       30.03R WCI  29
6HR MIN TEMP:  31; 6HR MAX TEMP:  40;

WHITEMAN AFB   CLEAR     30  30 100 S7        30.01R WCI  23
WARRENSBURG    CLEAR     32  32 100 S7        30.02R WCI  26
OSAGE BEACH    CLOUDY    28  27  96 SE3       30.03

$$
MOZ051-052-059>065-050700-
...EAST CENTRAL MISSOURI...

CITY           SKY/WX    TMP DP  RH WIND       PRES   REMARKS
ST LOUIS INTL  PTCLDY    37  31  78 CALM      30.04R
6HR MIN TEMP:  36; 6HR MAX TEMP:  40;

SPIRIT OF STL  CLEAR     31  31 100 W3        30.04R FOG
6HR MIN TEMP:  30; 6HR MAX TEMP:  40;

ST CHARLES     CLEAR     32  32 100 S6        30.04R WCI  26
6HR MIN TEMP:  32; 6HR MAX TEMP:  39;


$$
MOZ072>076-082>087-097>100-106>115-050700-
...SOUTH CENTRAL AND SOUTHEAST MISSOURI...

CITY           SKY/WX    TMP DP  RH WIND       PRES   REMARKS
CAPE GIRARDEAU CLOUDY    41  35  79 N5        30.07R
6HR MIN TEMP:  41; 6HR MAX TEMP:  43;

FARMINGTON     MOCLDY    33  32  96 CALM      30.05S
6HR MIN TEMP:  33; 6HR MAX TEMP:  41;

POPLAR BLUFF   MOCLDY    38  38 100 CALM      30.07F FOG
6HR MIN TEMP:  38; 6HR MAX TEMP:  45;

WEST PLAINS    CLOUDY    31  29  92 CALM      30.06R FOG
6HR MIN TEMP:  29; 6HR MAX TEMP:  39;


$$



USA.gov is the U.S. government's official web portal to all federal, state and local government web resources and services.